sat.trackr.live / text

‹ back to catalog

STARLINK-3737

NORAD 52114 · 2022-029AC

PAYLOAD ACTIVE UNKNOWN

§ Identity

Operator
Country
US
Launch date
2022-03-19
Launch site
AFETR
Launch vehicle
Mass (kg)
RCS (m²)

Purposes: comms

External: N2YO · Heavens-Above · Gunter

§ Orbital elements

Epoch: 2026-05-25T03:01:51.093120Z

Period
95.44 min
Inclination
53.2150°
Eccentricity
0.0001179
Mean motion
15.08839574 rev/d
Perigee alt
538.9 km
Apogee alt
540.6 km
Semi-major
6,917.9 km
B*
5.7226e-5
RAAN
95.9805°
Arg perigee
80.7318°
Mean anomaly
279.3807°
Rev number
23,232

§ Raw data

STARLINK-37371 52114U 22029AC  26145.12628580  .00000623  00000+0  57226-4 0  99942 52114  53.2150  95.9805 0001179  80.7318 279.3807 15.08839574232320

JSON: /api/v1/satellites/52114 · /tle

For live sub-satellite position, see the globe view (requires WebGL).

§ Visibility from observer

Set your observer location to see the next 7 days of passes ≥ 10°. The values pass through the URL so the page stays shareable.

No JS? Fill the form by hand. The geolocation button needs JavaScript.